Location: Red Rock Canyon
(36.1333°N, 115.4333°W)
Time: 22:17:28
(UTC-08:00)

ISS - Visible Passes

Search period start: 28 January 2015 00:00
Search period end: 07 February 2015 00:00
Orbit: 402 x 410 km, 51.6° (Epoch: 28 January)

Date Brightness Start Highest point End Pass type
(mag) Time Alt. Az. Time Alt. Az. Time Alt. Az.
28 Jan -2.5 04:54:46 50° SE 04:54:46 50° SE 04:57:19 10° SE visible
29 Jan -1.4 05:38:15 16° SW 05:38:27 16° SW 05:40:33 10° S visible
30 Jan -0.7 04:49:05 14° SSE 04:49:05 14° SSE 04:49:43 10° SSE visible
02 Feb -1.7 18:46:15 10° SSW 18:48:03 25° S 18:48:03 25° S visible
03 Feb -1.5 17:55:16 10° S 17:57:25 17° SE 17:58:50 14° E visible
03 Feb -0.3 19:30:38 10° WSW 19:31:33 17° W 19:31:33 17° W visible
04 Feb -3.4 18:38:28 10° SW 18:41:43 79° NW 18:42:13 60° NNE visible
05 Feb -2.9 17:46:39 10° SSW 17:49:46 46° SE 17:52:46 11° ENE visible
05 Feb -0.5 19:24:03 10° WNW 19:25:28 17° NW 19:25:28 17° NW visible
06 Feb -1.8 18:31:20 10° W 18:34:17 30° NW 18:35:55 19° NNE visible
